Regional Weather Roundup
Issued by NWS

Home | Current Version | Previous Version | Text Only | Print | Product List | Glossary On
Versions: 1 2 3 4 5 6 7 8 9 10 11 12 13 14 15 16 17 18 19 20 21 22 23 24 25 26 27 28 29 30 31 32 33 34 35 36 37 38 39 40 41 42 43 44 45 46 47 48 49 50
000
ASPQ40 PGUM 190312
RWRPQ
WEATHER ROUNDUP FOR THE MARIANAS AND MICRONESIA
NATIONAL WEATHER SERVICE TIYAN GU
100 PM CHST FRI DEC 19 2014

GUZ001>004-190400-
MARIANA ISLANDS-

CITY           SKY/WX    TMP DP  RH WIND       PRES   REMARKS
GUAM AIRPORT   PTSUNNY   86  73  66 NE24G31   29.93F HX  93
ANDERSEN AFB   PTSUNNY   77  73  88 NE24G33   29.93F FOG
ROTA AIRPORT   PTSUNNY   81  75  83 E20G29    29.95F
TINIAN AP      MOSUNNY   86  73  66 E22G31    29.93F HX  93
SAIPAN AP      MOSUNNY   88  72  58 NE24G31   29.94F HX  94

$$

PMZ161-190400-
REPUBLIC OF PALAU-

CITY           SKY/WX    TMP DP  RH WIND       PRES   REMARKS
KOROR AP       PTSUNNY   88  79  74 E16       29.86F HX 102
KOROR WSO      CLOUDY    86  77  74 SE8       29.85F HX  97

$$

PMZ171>174-190400-
FEDERATED STATES OF MICRONESIA-

CITY           SKY/WX    TMP DP  RH WIND       PRES   REMARKS
YAP AIRPORT    PTSUNNY   88  77  70 E14       29.86S HX 100
CHUUK AP       CLOUDY    88  77  70 NE10      29.79F HX 100
POHNPEI AP     PTSUNNY   90  77  66 E7          N/A  HX 102
POHNPEI WSO    PTSUNNY   88  79  74 N12       29.81F HX 102
KOSRAE AP      PTSUNNY   88  77  70 NE9       29.76F HX 100

$$

PMZ181-190400-
REPUBLIC OF THE MARSHALL ISLANDS-

CITY           SKY/WX    TMP DP  RH WIND       PRES   REMARKS
KWAJALEIN AP   MOSUNNY   86  75  70 NE18      29.77F HX  95
MAJURO AP      NOT AVBL
MAJURO WSO     PTSUNNY   81  77  89 E15       29.75F

$$



USA.gov is the U.S. government's official web portal to all federal, state and local government web resources and services.